STARLINK-36353

Last updated on Sun Mar 15 2026 00:02:07 GMT+0000 (Coordinated Universal Time)

1 67820U 26032Z 26073.49303427 .00183290 00000+0 11999-2 0 9999 2 67820 97.2837 260.2766 0001194 74.6937 285.4460 15.75260409 5543
UTC large
Height (km)
Speed (km/s)
/
Latitude / Longitude
Inclination (degrees)
Orbital Period (minutes)
Azimuth
Elevation
Range (km)
Doppler Factor

Next 0 passes for location: London (51.5072 / 0.1276)

Sorry there are no passes over London.